SCP
0 0 0 0 0 0 0 0 0 0 0 0 0 0 0 0 0 0 0 0 0 0 0 0 0 0 0 -0 -0 -0 0 0 0 0 0 0 0 0 0 0 0 0 0 0
0 0 0 0 0 0 0 0 0 0 0 0 0 0 0 0 0 0 0 0 0 0 0 0 0 0 0 0 0 0 0 0 0 0 0 0 0 0 0 0 0 0 0 0
0 0 0 0 0 0 0 0 0 0 0 0 0 0 0 0 0 0 0 0 0 0 0 0 0 0 0 0 0 0 0 0 0 0 0 0 0 0 0 0 0 0 0 0
0 0 0 0 0 0 0 0 0 0 0 0 0 0 0 0 0 0 0 0 0 0 0 0 0 0 0 0 0 0 0 0 0 0 0 0 0 0 0 0 0 0 0 0
0 0 0 0 0 0 0 0 0 0 0 0 0 0 0 0 0 0 0 0 0 0 0 0 0 0 0 0 0 0 0 0 0 0 0 0 0 0 0 0 0 0 0 0
0 0 0 0 0 0 0 0 0 0 0 0 0 0 0 0 0 0 0 0 0 0 0 0 0 0 0 0 0 0 0 0 0 0 0 0 0 0 0 0 0 0 0 0
0 0 0 0 0 0 0 0 0 0 0 0 0 0 0 0 0 0 0 0 0 0 0 0 0 0 0 0 0 0 0 0 0 0 0 0 0 0 0 0 0 0 0 0
0 0 0 0 0 0 0 0 0 0 0 0 0 0 0 0 0 0 0 0 0 0 0 0 0 0 0 0 0 0 0 0 0 0 0 0 0 0 0 0 0 0 0 0
0 0 0 0 0 0 0 0 0 0 0 0 0 0 0 0 0 0 0 0 0 0 0 0 0 0 0 0 0 0 0 0 0 0 0 0 0 0 0 0 0 0 0 0
0 0 0 0 0 0 0 0 0 0 0 0 0 0 0 0 0 0 0 0 0 0 0 0 0 0 0 0 0 0 0 0 0 0 0 0 0 0 0 0 0 0 0 0
0 0 0 0 0 0 0 0 0 0 0 0 0 0 0 0 0 0 0 0 0 0 0 0 0 0 0 0 0 0 0 0 0 0 0 0 0 0 0 0 0 0 0 0
0 0 0 0 0 0 0 0 0 0 0 0 0 0 0 0 0 0 0 0 0 0 0 0 0 0 0 0 0 0 0 0 0 0 0 0 0 0 0 0 0 0 0 0
0 0 0 0 0 0 0 0 0 0 0 0 0 0 0 0 0 0 0 0 0 0 0 0 0 0 0 0 0 0 0 0 0 0 0 0 0 0 0 0 0 0 0 0
0 0 0 0 0 0 0 0 0 0 0 0 0 0 0 0 0 0 0 0 0 0 0 0 0 0 0 0 0 0 0 0 0 0 0 0 0 0 0 0 0 0 0 0
0 0 0 0 0 0 0 0 0 0 0 0 0 0 0 0 0 0 0 0 0 0 0 0 0 0 0 0 0 0 0 0 0 0 0 0 0 0 0 0 0 0 0 0
0 0 0 0 0 0 0 0 0 0 0 0 0 0 0 0 0 0 0 0 0 0 0 0 0 0 0 0 0 0 0 0 0 0 0 0 0 0 0 0 0 0 0 0
0 0 0 0 0 0 0 0 0 0 0 0 0 0 0 0 0 0 0 0 0 0 0 0 0 0 0 0 0 0 0 0 0 0 0 0 0 0 0 0 0 0 0 0
0 0 0 0 0 0 0 0 0 0 0 0 0 0 0 0 0 0 0 0 0 0 0 0 0 0 0 0 0 0 0 0 0 0 0 0 0 0 0 0 0 0 0 0
0 0 0 0 0 0 0 0 0 0 0 0 0 0 0 0 0 0 0 0 0 0 0 0 0 0 0 0 0 0 0 0 0 0 0 0 0 0 0 0 0 0 0 0
0 0 0 0 0 0 0 0 0 0 0 0 0 0 0 0 0 0 0 0 0 0 0 0 0 0 0 0 0 0 0 0 0 0 0 0 0 0 0 0 0 0 0 0
0 0 0 0 0 0 0 0 0 0 0 0 0 0 0 0 0 0 0 0 0 0 0 0 0 0 0 0 0 0 0 0 0 0 0 0 0 0 0 0 0 0 0 0
0 0 0 0 0 0 0 0 0 0 0 0 0 0 0 0 0 0 0 0 0 0 0 0 0 0 0 0 0 0 0 0 0 0 0 0 0 0 0 0 0 0 0 0
0 0 0 0 0 0 0 0 0 0 0 0 0 0 0 0 0 0 0 0 0 0 0 0 0 0 0 0 0 0 0 0 0 0 0 0 0 0 0 0 0 0 0 0
0 0 0 0 0 0 0 0 0 0 0 0 0 0 0 0 0 0 0 0 0 0 0 0 0 0 0 0 0 0 0 0 0 0 0 0 0 0 0 0 0 0 0 0
0 0 0 0 0 0 0 0 0 0 0 0 0 0 0 0 0 0 0 0 0 0 0 0 0 0 0 0 0 0 0 0 0 0 0 0 0 0 0 0 0 0 0 0
0 0 0 0 0 0 0 0 0 0 0 0 0 0 0 0 0 0 0 0 0 0 0 0 0 0 0 0 0 0 0 0 0 0 0 0 0 0 0 0 0 0 0 0
0 0 0 0 0 0 0 0 0 0 0 0 0 0 0 0 0 0 0 0 0 0 0 0 0 0 0 0 0 0 0 0 0 0 0 0 0 0 0 0 0 0 0 0
Wind_Speed
7 2 3 4 5 7 8 8 7 5 5 4 4 4 3 2 2 2 2 3 3 4 3 3 3 2 1 0 0 1 1 1 3 4 4 4 4 5 5 5 6 5 5 5
8 6 6 8 8 8 9 8 8 8 6 2 4 2 0 1 3 2 2 2 3 3 3 3 2 2 2 1 1 0 1 1 2 3 3 4 4 4 5 5 5 5 5 5
8 6 6 9 12 12 10 8 7 6 3 2 1 1 1 2 1 2 2 2 2 2 3 3 1 2 2 1 1 1 1 1 1 2 3 3 4 4 5 4 4 4 5 5
7 6 8 1 4 5 8 8 6 4 1 1 1 1 2 1 1 1 2 3 2 2 2 2 2 3 2 3 1 0 1 1 0 1 2 2 3 3 3 4 4 3 4 4
6 8 7 6 6 5 5 5 5 4 2 1 1 1 3 4 3 2 3 3 2 1 2 2 2 2 1 2 2 2 1 1 1 0 1 2 3 3 3 3 4 4 3 4
5 6 6 4 10 6 3 5 5 4 2 2 2 1 4 5 4 4 4 3 2 1 1 1 2 2 1 2 1 1 1 1 0 0 1 1 2 3 3 3 3 3 3 3
8 7 3 8 9 6 3 2 6 5 3 2 1 5 5 5 4 4 3 3 2 1 1 0 1 1 2 2 1 2 2 1 1 1 2 2 2 2 3 3 3 3 3 2
7 7 4 9 7 4 3 5 5 4 3 3 4 5 4 4 4 3 3 3 2 2 1 1 1 1 2 1 0 1 1 1 2 3 3 2 2 3 3 3 4 4 3 2
4 2 5 4 3 4 2 2 3 4 4 3 3 3 4 3 3 3 3 3 2 1 1 2 2 2 2 2 1 2 3 3 4 4 4 3 3 3 3 3 2 3 2 2
4 5 7 6 5 4 2 1 3 3 2 2 2 3 4 3 3 3 2 2 2 1 1 1 1 1 0 1 1 3 4 4 4 4 4 4 3 3 2 2 2 2 2 2
8 4 5 6 6 6 5 4 4 3 2 2 2 2 3 3 3 3 3 3 2 1 0 1 1 1 0 1 2 3 4 4 4 4 3 3 3 3 3 3 3 3 2 2
6 5 7 8 10 9 7 6 5 5 4 3 3 3 3 3 4 3 3 2 2 2 1 1 2 2 2 2 3 4 4 4 2 2 2 2 3 3 6 7 7 8 8 5
6 1 2 6 10 9 8 7 6 5 5 4 4 4 4 4 4 4 3 3 3 3 3 3 3 4 4 3 3 4 4 4 3 2 2 3 3 3 4 5 9 10 10 10
4 5 5 6 7 8 8 8 7 7 6 5 4 4 4 5 5 5 4 4 4 4 4 4 4 5 6 5 4 4 4 4 4 3 3 3 4 4 3 3 3 4 8 13
5 5 5 7 8 8 8 8 8 8 7 7 5 5 5 5 6 5 4 4 4 5 6 6 6 6 6 7 6 5 4 3 3 4 3 3 3 4 4 4 4 4 3 4
8 6 6 9 10 10 10 10 9 9 8 8 7 6 6 6 6 6 5 5 7 7 7 7 7 6 6 7 7 5 4 6 6 4 4 3 4 4 3 3 3 3 3 2
10 10 10 11 12 12 11 10 9 9 9 8 7 7 7 7 7 6 6 6 8 8 7 7 6 6 7 7 7 5 5 5 7 4 3 4 4 4 4 3 3 3 3 3
9 9 9 11 11 11 10 9 9 9 9 9 8 7 7 7 7 6 6 7 7 7 7 6 6 6 6 8 7 5 5 4 4 4 4 4 5 5 5 5 5 5 4 4
5 5 6 8 9 10 9 9 9 9 9 9 8 7 7 6 6 6 7 7 6 6 5 6 8 7 7 8 9 5 5 5 5 5 4 6 5 5 5 5 6 6 6 5
2 4 6 7 9 9 10 10 10 9 8 8 8 8 7 6 6 7 8 7 5 4 4 5 6 6 7 8 10 5 5 5 5 5 5 5 6 6 6 6 6 7 7 7
4 6 7 8 8 9 9 10 10 9 8 7 8 7 7 6 6 6 6 5 5 4 3 5 4 4 5 8 9 4 5 5 5 5 5 5 6 6 6 7 7 7 7 7
5 6 7 8 8 8 8 9 9 9 8 7 7 7 7 6 6 6 5 4 4 3 2 2 3 6 9 9 4 4 4 4 4 4 4 5 5 5 6 7 6 7 7 7
6 7 8 8 8 8 8 8 8 7 7 7 6 6 6 5 4 4 4 3 3 3 1 1 3 7 10 6 3 4 4 4 4 4 4 4 5 5 5 5 5 6 6 6
6 7 7 7 8 8 8 8 7 6 6 6 5 5 5 4 3 3 4 5 4 2 0 0 3 7 7 3 3 3 3 3 3 4 4 4 4 4 4 4 5 5 5 6
6 7 7 7 7 5 7 7 7 7 6 5 5 5 3 3 3 3 3 3 4 3 1 2 5 6 4 2 3 3 3 3 3 3 3 3 4 4 4 4 4 5 5 5
5 4 4 5 4 4 5 5 5 5 5 4 4 4 3 3 3 3 2 2 2 2 2 2 2 3 2 2 3 3 3 3 4 3 4 4 4 4 4 4 6 5 5 5
5 4 3 3 3 3 3 3 4 4 4 4 4 4 3 3 3 2 2 1 1 1 1 1 1 2 2 2 3 3 3 3 3 3 4 4 4 4 5 6 5 5 5 5
Wind_Direction
283 289 291 266 234 214 229 254 278 317 339 344 41 64 69 115 152 165 172 174 173 172 192 190 195 206 171 161 302 343 333 349 4 354 4 359 357 355 355 357 358 357 358 355
268 250 248 253 244 232 228 242 263 282 290 27 66 85 97 179 147 167 190 191 179 182 181 197 204 182 150 163 147 318 342 32 24 349 358 350 352 359 356 351 351 358 358 355
271 238 234 249 230 218 221 224 234 255 284 42 7 42 33 29 99 162 172 161 171 191 173 186 184 119 102 91 98 270 351 51 37 359 355 355 354 355 348 344 355 358 353 355
272 243 239 163 79 178 211 224 223 239 269 336 328 81 108 88 54 116 137 138 154 178 158 180 171 143 148 164 188 206 33 2 40 344 337 341 338 335 335 340 347 342 341 346
268 270 259 171 156 165 199 224 201 216 189 119 337 232 173 126 97 77 97 113 129 141 151 177 142 127 188 192 172 171 165 279 304 301 330 332 326 323 324 330 328 327 333 346
268 267 283 117 128 139 208 233 164 163 143 133 240 249 99 94 94 89 92 96 106 128 193 159 132 124 277 282 224 169 157 192 323 2 329 309 307 311 313 308 304 315 327 336
259 267 270 110 120 138 216 138 127 134 132 154 84 77 96 97 99 99 109 115 122 158 167 61 96 153 259 294 6 72 83 40 334 286 264 257 267 283 293 299 306 306 303 306
221 240 228 139 154 179 93 102 119 120 110 93 81 92 100 100 107 114 122 132 164 187 181 180 222 240 262 278 50 95 140 238 261 263 267 277 255 263 277 290 292 293 295 304
214 167 99 143 128 93 66 108 98 94 89 99 112 117 112 112 116 120 126 137 161 204 209 207 216 224 256 244 205 208 213 231 242 247 240 239 245 254 260 265 275 287 303 314
260 174 169 175 155 144 153 118 93 100 113 131 144 128 121 119 117 121 125 126 133 150 210 262 255 153 266 297 263 246 240 238 238 242 240 233 227 233 249 265 280 293 304 303
244 225 165 183 187 175 168 169 160 147 133 129 129 118 117 118 113 110 106 103 110 114 128 342 6 57 22 307 298 286 274 257 247 243 245 246 235 229 232 228 220 233 259 283
233 227 212 193 182 175 173 178 172 158 143 128 117 109 101 93 90 90 89 91 98 98 76 9 359 23 27 352 316 298 296 299 294 277 254 248 253 256 238 232 232 227 229 234
251 318 55 121 146 162 174 172 159 147 137 129 113 103 101 97 90 85 76 69 76 78 68 37 23 22 13 359 337 320 309 310 306 299 291 272 261 258 269 258 244 245 244 241
169 134 132 146 156 171 172 162 152 143 134 122 112 106 103 102 95 85 72 61 63 66 60 47 34 19 3 354 339 321 322 328 323 302 290 281 277 272 266 266 263 253 241 236
189 189 182 164 161 168 165 163 160 153 140 129 122 117 111 105 97 86 73 63 62 61 52 45 39 21 2 357 348 337 331 327 316 305 294 289 290 288 283 279 275 270 260 235
201 201 176 168 171 173 176 178 170 156 145 138 131 125 116 107 99 89 76 71 71 62 49 42 30 10 3 2 349 340 334 335 329 318 317 320 312 300 294 294 295 294 288 277
198 197 190 186 183 183 184 180 166 154 147 140 135 128 124 118 109 100 89 80 76 65 52 40 18 3 13 13 355 342 336 335 337 333 331 330 323 319 319 315 311 309 303 305
211 203 196 190 185 181 175 164 151 144 140 137 137 134 129 123 116 108 99 91 84 70 51 34 12 3 20 21 357 341 338 341 345 346 343 343 338 335 336 336 334 329 324 320
199 188 185 181 173 165 157 149 143 137 136 140 138 129 120 115 113 106 96 86 79 68 46 22 11 18 21 15 357 339 345 350 352 351 352 351 350 349 348 347 346 344 343 344
141 141 146 148 148 146 142 140 137 136 140 141 135 130 125 120 115 108 101 90 75 56 34 19 16 18 13 1 349 344 355 360 360 357 359 358 356 355 354 354 353 353 354 352
114 123 127 132 133 133 136 137 137 139 139 138 136 132 127 121 115 110 107 101 84 42 15 25 27 20 4 345 334 345 355 359 1 0 360 357 355 355 356 357 356 355 354 353
132 132 136 136 137 139 139 138 138 138 136 135 133 132 130 126 120 111 102 102 97 60 27 35 31 11 351 340 334 345 351 358 1 360 358 355 355 355 356 355 354 354 352 350
150 149 149 151 152 148 141 139 139 139 141 141 140 138 132 123 124 128 122 111 101 69 36 41 3 350 344 340 336 345 353 1 1 358 355 351 349 349 349 349 348 346 344 345
159 159 159 158 154 151 149 144 141 140 139 134 132 133 134 132 128 121 121 129 132 129 299 335 323 327 327 320 329 344 355 356 352 347 342 337 337 337 337 337 336 335 335 337
170 165 161 162 162 156 150 149 147 144 144 142 145 149 147 136 133 126 125 139 157 189 230 282 304 305 301 313 338 345 341 336 331 324 323 327 329 328 330 331 332 329 327 325
171 161 158 162 156 152 155 156 154 154 157 156 155 156 151 143 145 151 163 188 204 217 238 248 270 286 315 343 337 325 320 324 332 337 334 330 329 329 326 328 329 327 322 320
172 161 154 158 153 157 157 156 158 162 163 161 159 158 157 155 157 165 184 202 215 235 255 288 316 326 324 318 311 314 321 329 331 329 326 325 323 323 325 327 322 318 318 321